Time,TemperatureF,DewpointF,PressureIn,WindDirection,WindDirectionDegrees,WindSpeedMPH,WindSpeedGustMPH,Humidity,HourlyPrecipIn,Conditions,Clouds,dailyrainin,SoftwareType,DateUTC
2013-05-21 05:59:00,71.2,67.8,29.83,SSW,197,0.0,7.2,89,0.00,,OVC,0.00,VWS V13.01,2013-05-21 09:59:00,
2013-05-21 06:04:00,71.2,67.8,29.83,SSW,197,0.0,7.2,89,0.00,,OVC,0.00,VWS V13.01,2013-05-21 10:04:00,
2013-05-21 06:09:00,71.2,67.8,29.83,SSE,157,0.0,7.2,89,0.00,,OVC,0.00,VWS V13.01,2013-05-21 10:09:00,
2013-05-21 06:14:00,71.2,67.8,29.83,SSE,157,0.0,7.2,89,0.00,,OVC,0.00,VWS V13.01,2013-05-21 10:14:00,
2013-05-21 06:19:00,71.2,67.8,29.83,WSW,240,0.0,7.2,89,0.00,,OVC,0.00,VWS V13.01,2013-05-21 10:19:00,
2013-05-21 06:24:00,71.2,67.8,29.83,WSW,245,0.0,7.2,89,0.00,,OVC,0.00,VWS V13.01,2013-05-21 10:24:00,
2013-05-21 06:29:00,71.2,67.8,29.83,NW,321,0.0,7.2,89,0.00,,OVC,0.00,VWS V13.01,2013-05-21 10:29:00,
2013-05-21 06:34:00,71.2,67.8,29.83,NW,321,0.0,7.2,89,0.00,,OVC,0.00,VWS V13.01,2013-05-21 10:34:00,
2013-05-21 06:39:00,71.2,67.8,29.83,WNW,301,0.0,7.2,89,0.00,,OVC,0.00,VWS V13.01,2013-05-21 10:39:00,
2013-05-21 06:44:00,71.2,67.8,29.83,SW,225,0.0,7.2,89,0.00,,OVC,0.00,VWS V13.01,2013-05-21 10:44:00,
2013-05-21 06:49:00,71.2,67.8,29.85,WSW,254,0.0,7.2,89,0.00,,OVC,0.00,VWS V13.01,2013-05-21 10:49:00,
2013-05-21 06:54:00,71.2,67.8,29.85,WNW,295,0.0,7.2,89,0.00,,OVC,0.00,VWS V13.01,2013-05-21 10:54:00,
2013-05-21 06:59:00,71.2,67.8,29.85,West,279,0.0,7.2,89,0.00,,OVC,0.00,VWS V13.01,2013-05-21 10:59:00,
2013-05-21 07:04:00,71.2,67.8,29.83,North,0,0.0,7.2,89,0.00,,OVC,0.00,VWS V13.01,2013-05-21 11:04:00,
2013-05-21 07:09:00,71.2,67.8,29.83,North,0,0.0,7.2,89,0.00,,OVC,0.00,VWS V13.01,2013-05-21 11:09:00,
2013-05-21 07:14:00,71.2,67.8,29.83,North,357,0.0,7.2,89,0.00,,OVC,0.00,VWS V13.01,2013-05-21 11:14:00,
2013-05-21 07:19:00,71.2,67.8,29.83,North,0,0.0,7.2,89,0.00,,OVC,0.00,VWS V13.01,2013-05-21 11:19:00,
2013-05-21 07:24:00,71.2,67.8,29.83,NW,319,0.0,7.2,89,0.00,,OVC,0.00,VWS V13.01,2013-05-21 11:24:00,
2013-05-21 07:29:00,71.2,67.8,29.83,WNW,303,0.0,7.2,89,0.00,,OVC,0.00,VWS V13.01,2013-05-21 11:29:00,
2013-05-21 07:34:00,71.2,67.8,29.83,WNW,299,0.0,7.2,89,0.00,,OVC,0.00,VWS V13.01,2013-05-21 11:34:00,
2013-05-21 07:39:00,71.2,67.8,29.83,NW,306,0.0,7.2,89,0.00,,OVC,0.00,VWS V13.01,2013-05-21 11:39:00,
2013-05-21 07:45:00,71.2,67.8,29.83,NW,306,0.0,7.2,89,0.00,,OVC,0.00,VWS V13.01,2013-05-21 11:45:00,
2013-05-21 07:50:00,71.2,67.8,29.83,SE,132,0.0,7.2,89,0.00,,OVC,0.00,VWS V13.01,2013-05-21 11:50:00,
2013-05-21 07:55:00,71.2,67.8,29.83,SSE,164,0.0,7.2,89,0.00,,OVC,0.00,VWS V13.01,2013-05-21 11:55:00,
2013-05-21 08:00:00,71.2,67.8,29.83,East,81,0.0,7.2,89,0.00,,OVC,0.00,VWS V13.01,2013-05-21 12:00:00,
2013-05-21 08:05:00,71.2,67.8,29.83,WNW,302,0.0,7.2,89,0.00,,OVC,0.00,VWS V13.01,2013-05-21 12:05:00,
2013-05-21 08:10:00,71.2,67.8,29.83,SSW,198,0.0,7.2,89,0.00,,OVC,0.00,VWS V13.01,2013-05-21 12:10:00,
2013-05-21 08:15:00,71.2,67.8,29.83,WNW,287,0.0,7.2,89,0.00,,OVC,0.00,VWS V13.01,2013-05-21 12:15:00,
2013-05-21 08:20:00,71.2,67.8,29.85,NNW,340,0.0,7.2,89,0.00,,OVC,0.00,VWS V13.01,2013-05-21 12:20:00,
2013-05-21 08:25:00,71.2,67.8,29.85,West,263,0.0,7.2,89,0.00,,OVC,0.00,VWS V13.01,2013-05-21 12:25:00,
2013-05-21 08:30:00,71.2,67.8,29.85,WNW,283,0.0,7.2,89,0.00,,OVC,0.00,VWS V13.01,2013-05-21 12:30:00,
2013-05-21 08:35:00,71.2,67.8,29.83,West,272,0.0,7.2,89,0.00,,OVC,0.00,VWS V13.01,2013-05-21 12:35:00,
2013-05-21 08:40:00,71.2,67.8,29.83,NW,304,0.0,7.2,89,0.00,,OVC,0.00,VWS V13.01,2013-05-21 12:40:00,
2013-05-21 08:45:00,71.2,67.8,29.83,NNW,329,0.0,7.2,89,0.00,,OVC,0.00,VWS V13.01,2013-05-21 12:45:00,
2013-05-21 08:50:00,71.2,67.8,29.83,NW,319,0.0,7.2,89,0.00,,OVC,0.00,VWS V13.01,2013-05-21 12:50:00,
2013-05-21 08:55:00,71.2,67.8,29.83,WNW,282,0.0,7.2,89,0.00,,OVC,0.00,VWS V13.01,2013-05-21 12:55:00,
2013-05-21 09:00:00,71.2,67.8,29.83,West,271,0.0,7.2,89,0.00,,OVC,0.00,VWS V13.01,2013-05-21 13:00:00,
2013-05-21 09:05:00,71.2,67.8,29.83,South,188,0.0,7.2,89,0.00,,OVC,0.00,VWS V13.01,2013-05-21 13:05:00,
2013-05-21 09:10:00,71.2,67.8,29.83,WNW,295,0.0,7.2,89,0.00,,OVC,0.00,VWS V13.01,2013-05-21 13:10:00,
2013-05-21 09:15:00,71.2,67.8,29.83,SSW,205,0.0,7.2,89,0.00,,OVC,0.00,VWS V13.01,2013-05-21 13:15:00,
2013-05-21 09:20:00,71.2,67.8,29.83,SE,137,0.0,7.2,89,0.00,,OVC,0.00,VWS V13.01,2013-05-21 13:20:00,
2013-05-21 09:25:00,71.2,67.8,29.83,East,91,0.0,7.2,89,0.00,,OVC,0.00,VWS V13.01,2013-05-21 13:25:00,
2013-05-21 09:30:00,71.2,67.8,29.83,ENE,74,2.7,7.2,89,0.00,,OVC,0.00,VWS V13.01,2013-05-21 13:30:00,
2013-05-21 09:35:00,71.2,67.8,29.83,SSE,166,0.0,7.2,89,0.00,,OVC,0.00,VWS V13.01,2013-05-21 13:35:00,
2013-05-21 09:40:00,71.2,67.8,29.83,WNW,294,0.0,7.2,89,0.00,,OVC,0.00,VWS V13.01,2013-05-21 13:40:00,
2013-05-21 09:45:00,71.2,67.8,29.83,North,357,5.4,7.2,89,0.00,,OVC,0.00,VWS V13.01,2013-05-21 13:45:00,
2013-05-21 09:50:00,71.2,67.8,29.83,NNE,26,2.2,7.2,89,0.00,,OVC,0.00,VWS V13.01,2013-05-21 13:50:00,
2013-05-21 09:55:00,71.2,67.8,29.83,NW,322,0.0,7.2,89,0.00,,OVC,0.00,VWS V13.01,2013-05-21 13:55:00,
2013-05-21 10:00:00,71.2,67.8,29.83,ENE,74,0.0,7.2,89,0.00,,OVC,0.00,VWS V13.01,2013-05-21 14:00:00,
2013-05-21 10:05:00,71.2,67.8,29.83,NW,312,0.0,7.2,89,0.00,,OVC,0.00,VWS V13.01,2013-05-21 14:05:00,
2013-05-21 10:10:00,71.2,67.8,29.83,NW,306,0.0,7.2,89,0.00,,OVC,0.00,VWS V13.01,2013-05-21 14:10:00,
2013-05-21 10:15:00,71.2,67.8,29.83,SW,215,3.1,7.2,89,0.00,,OVC,0.00,VWS V13.01,2013-05-21 14:15:00,
2013-05-21 10:20:00,71.2,67.8,29.83,WSW,256,0.0,7.2,89,0.00,,OVC,0.00,VWS V13.01,2013-05-21 14:20:00,
2013-05-21 10:25:00,71.2,67.8,29.83,North,8,0.0,7.2,89,0.00,,OVC,0.00,VWS V13.01,2013-05-21 14:25:00,
2013-05-21 10:30:00,71.2,67.8,29.83,WNW,299,3.1,7.2,89,0.00,,OVC,0.00,VWS V13.01,2013-05-21 14:30:00,
2013-05-21 10:35:00,71.2,67.8,29.83,NW,320,2.2,7.2,89,0.00,,OVC,0.00,VWS V13.01,2013-05-21 14:35:00,
2013-05-21 10:40:00,71.2,67.8,29.83,North,350,0.0,7.2,89,0.00,,OVC,0.00,VWS V13.01,2013-05-21 14:40:00,
2013-05-21 10:45:00,71.2,67.8,29.83,SW,227,0.0,7.2,89,0.00,,OVC,0.00,VWS V13.01,2013-05-21 14:45:00,
2013-05-21 10:50:00,71.2,67.8,29.83,North,353,0.0,7.2,89,0.00,,OVC,0.00,VWS V13.01,2013-05-21 14:50:00,
2013-05-21 10:55:00,71.2,67.8,29.83,WNW,297,0.0,7.2,89,0.00,,OVC,0.00,VWS V13.01,2013-05-21 14:55:00,
2013-05-21 11:00:00,71.2,67.8,29.83,NW,317,2.2,7.2,89,0.00,,OVC,0.00,VWS V13.01,2013-05-21 15:00:00,
2013-05-21 11:05:00,71.2,67.8,29.83,NW,322,0.0,7.2,89,0.00,,OVC,0.00,VWS V13.01,2013-05-21 15:05:00,
2013-05-21 11:10:00,71.2,67.8,29.83,WNW,298,0.0,7.2,89,0.00,,OVC,0.00,VWS V13.01,2013-05-21 15:10:00,
2013-05-21 11:15:00,71.2,67.8,29.83,NW,305,0.0,7.2,89,0.00,,OVC,0.00,VWS V13.01,2013-05-21 15:15:00,
2013-05-21 11:20:00,71.2,67.8,29.80,ENE,68,0.0,7.2,89,0.00,,OVC,0.00,VWS V13.01,2013-05-21 15:20:00,
2013-05-21 11:25:00,71.2,67.8,29.80,West,275,0.0,7.2,89,0.00,,OVC,0.00,VWS V13.01,2013-05-21 15:25:00,
2013-05-21 11:30:00,71.2,67.8,29.80,SSW,210,0.0,7.2,89,0.00,,OVC,0.00,VWS V13.01,2013-05-21 15:30:00,
2013-05-21 11:35:00,71.2,67.8,29.83,WSW,257,0.0,7.2,89,0.00,,OVC,0.00,VWS V13.01,2013-05-21 15:35:00,
2013-05-21 11:40:00,71.2,67.8,29.83,NW,314,2.2,7.2,89,0.00,,OVC,0.00,VWS V13.01,2013-05-21 15:40:00,
2013-05-21 11:45:00,71.2,67.8,29.83,SE,140,4.9,7.2,89,0.00,,OVC,0.00,VWS V13.01,2013-05-21 15:45:00,
2013-05-21 11:50:00,71.2,67.8,29.83,SE,124,2.2,7.2,89,0.00,,OVC,0.00,VWS V13.01,2013-05-21 15:50:00,
2013-05-21 11:55:00,71.2,67.8,29.83,WSW,237,0.0,7.2,89,0.00,,OVC,0.00,VWS V13.01,2013-05-21 15:55:00,
2013-05-21 12:00:00,71.2,67.8,29.83,East,94,2.7,7.2,89,0.00,,OVC,0.00,VWS V13.01,2013-05-21 16:00:00,
2013-05-21 12:05:00,71.2,67.8,29.83,ESE,111,3.1,7.2,89,0.00,,OVC,0.00,VWS V13.01,2013-05-21 16:05:00,
2013-05-21 12:10:00,71.2,67.8,29.83,NE,55,4.0,7.2,89,0.00,,OVC,0.00,VWS V13.01,2013-05-21 16:10:00,
2013-05-21 12:15:00,71.2,67.8,29.83,East,86,4.0,7.2,89,0.00,,OVC,0.00,VWS V13.01,2013-05-21 16:15:00,
2013-05-21 12:20:00,71.2,67.8,29.83,North,353,0.0,7.2,89,0.00,,OVC,0.00,VWS V13.01,2013-05-21 16:20:00,
2013-05-21 12:25:00,71.2,67.8,29.83,North,8,2.7,7.2,89,0.00,,OVC,0.00,VWS V13.01,2013-05-21 16:25:00,
2013-05-21 12:30:00,71.2,67.8,29.83,WNW,297,2.7,7.2,89,0.00,,OVC,0.00,VWS V13.01,2013-05-21 16:30:00,
2013-05-21 12:35:00,71.2,67.8,29.83,ENE,61,0.0,7.2,89,0.00,,OVC,0.00,VWS V13.01,2013-05-21 16:35:00,
2013-05-21 12:40:00,71.2,67.8,29.83,NW,316,0.0,7.2,89,0.00,,OVC,0.00,VWS V13.01,2013-05-21 16:40:00,
2013-05-21 12:45:00,71.2,67.8,29.83,SSW,195,2.7,7.2,89,0.00,,OVC,0.00,VWS V13.01,2013-05-21 16:45:00,
2013-05-21 12:50:00,71.2,67.8,29.83,NW,319,4.9,8.3,89,0.00,,OVC,0.00,VWS V13.01,2013-05-21 16:50:00,
2013-05-21 12:55:00,71.2,67.8,29.83,North,2,0.0,8.3,89,0.00,,OVC,0.00,VWS V13.01,2013-05-21 16:55:00,
2013-05-21 13:00:00,71.2,67.8,29.83,SE,132,2.7,8.3,89,0.00,,OVC,0.00,VWS V13.01,2013-05-21 17:00:00,
2013-05-21 13:05:00,71.2,67.8,29.83,North,2,0.0,8.3,89,0.00,,OVC,0.00,VWS V13.01,2013-05-21 17:05:00,
2013-05-21 13:10:00,71.2,67.8,29.83,SSE,162,4.9,8.3,89,0.00,,OVC,0.00,VWS V13.01,2013-05-21 17:10:00,
2013-05-21 13:15:00,71.2,67.8,29.83,ENE,63,0.0,8.3,89,0.00,,OVC,0.00,VWS V13.01,2013-05-21 17:15:00,
2013-05-21 13:20:00,71.2,67.8,29.83,SSW,208,2.7,8.3,89,0.00,,OVC,0.00,VWS V13.01,2013-05-21 17:20:00,
2013-05-21 13:25:00,71.2,67.8,29.83,ENE,69,2.7,8.3,89,0.00,,OVC,0.00,VWS V13.01,2013-05-21 17:25:00,
2013-05-21 13:30:00,71.2,67.8,29.83,East,84,2.7,8.3,89,0.00,,OVC,0.00,VWS V13.01,2013-05-21 17:30:00,
2013-05-21 13:35:00,71.2,67.8,29.83,North,350,2.7,8.3,89,0.00,,OVC,0.00,VWS V13.01,2013-05-21 17:35:00,
2013-05-21 13:40:00,71.2,67.8,29.83,NNW,333,2.2,8.3,89,0.00,,OVC,0.00,VWS V13.01,2013-05-21 17:40:00,
2013-05-21 13:45:00,71.2,67.8,29.83,WNW,294,3.1,8.3,89,0.00,,OVC,0.00,VWS V13.01,2013-05-21 17:45:00,
2013-05-21 13:50:00,71.2,67.8,29.83,NW,310,4.0,8.3,89,0.00,,OVC,0.00,VWS V13.01,2013-05-21 17:50:00,
2013-05-21 13:55:00,71.2,67.8,29.83,ESE,102,0.0,8.3,89,0.00,,OVC,0.00,VWS V13.01,2013-05-21 17:55:00,
2013-05-21 14:00:00,71.2,67.8,29.83,South,177,2.7,8.3,89,0.00,,OVC,0.00,VWS V13.01,2013-05-21 18:00:00,
2013-05-21 14:05:00,71.2,67.8,29.80,SSW,212,0.0,8.3,89,0.00,,OVC,0.00,VWS V13.01,2013-05-21 18:05:00,
2013-05-21 14:11:00,71.2,67.8,29.80,NE,43,3.1,8.3,89,0.00,,OVC,0.00,VWS V13.01,2013-05-21 18:11:00,
2013-05-21 14:16:00,71.2,67.8,29.80,NNW,327,0.0,8.3,89,0.00,,OVC,0.00,VWS V13.01,2013-05-21 18:16:00,
2013-05-21 14:21:00,71.2,67.8,29.83,North,7,3.1,8.3,89,0.00,,OVC,0.00,VWS V13.01,2013-05-21 18:21:00,
2013-05-21 14:26:00,71.2,67.8,29.83,South,184,2.7,8.3,89,0.00,,OVC,0.00,VWS V13.01,2013-05-21 18:26:00,
2013-05-21 14:31:00,71.2,67.8,29.83,NW,308,0.0,8.3,89,0.00,,OVC,0.00,VWS V13.01,2013-05-21 18:31:00,
2013-05-21 14:36:00,71.2,67.8,29.80,West,263,3.1,8.3,89,0.00,,OVC,0.00,VWS V13.01,2013-05-21 18:36:00,
2013-05-21 14:44:00,71.2,67.8,29.80,WNW,288,2.7,8.3,89,0.00,,OVC,0.00,VWS V13.01,2013-05-21 18:44:00,
2013-05-21 14:49:00,71.2,67.8,29.80,WNW,286,8.3,8.3,89,0.00,,OVC,0.00,VWS V13.01,2013-05-21 18:49:00,
2013-05-21 14:54:00,71.2,67.8,29.80,NE,45,3.1,8.3,89,0.00,,OVC,0.00,VWS V13.01,2013-05-21 18:54:00,
2013-05-21 14:59:00,71.2,67.8,29.80,NNE,18,3.1,8.3,89,0.00,,OVC,0.00,VWS V13.01,2013-05-21 18:59:00,
2013-05-21 15:04:00,71.2,67.8,29.80,North,3,2.2,8.3,89,0.00,,OVC,0.00,VWS V13.01,2013-05-21 19:04:00,
2013-05-21 15:09:00,71.2,67.8,29.80,NE,53,2.7,8.3,89,0.00,,OVC,0.00,VWS V13.01,2013-05-21 19:09:00,
2013-05-21 15:14:00,71.2,67.8,29.80,NNE,16,0.0,8.3,89,0.00,,OVC,0.00,VWS V13.01,2013-05-21 19:14:00,
2013-05-21 15:19:00,71.2,67.8,29.80,SW,226,2.7,8.3,89,0.00,,OVC,0.00,VWS V13.01,2013-05-21 19:19:00,
2013-05-21 15:24:00,71.2,67.8,29.80,NE,34,0.0,8.3,89,0.00,,OVC,0.00,VWS V13.01,2013-05-21 19:24:00,
2013-05-21 15:29:00,71.2,67.8,29.80,ENE,60,0.0,10.1,89,0.00,,OVC,0.00,VWS V13.01,2013-05-21 19:29:00,
2013-05-21 15:34:00,71.2,67.8,29.80,ENE,63,2.2,10.1,89,0.00,,OVC,0.00,VWS V13.01,2013-05-21 19:34:00,
2013-05-21 15:39:00,71.2,67.8,29.80,East,81,2.2,10.1,89,0.00,,OVC,0.00,VWS V13.01,2013-05-21 19:39:00,
2013-05-21 15:44:00,71.2,67.8,29.80,ENE,64,0.0,10.1,89,0.00,,OVC,0.00,VWS V13.01,2013-05-21 19:44:00,
2013-05-21 15:49:00,71.2,67.8,29.77,NNW,329,0.0,10.1,89,0.00,,OVC,0.00,VWS V13.01,2013-05-21 19:49:00,
2013-05-21 15:54:00,71.2,67.8,29.77,ESE,108,5.4,10.1,89,0.00,,OVC,0.00,VWS V13.01,2013-05-21 19:54:00,
2013-05-21 15:59:00,71.2,67.8,29.77,ESE,109,5.4,10.1,89,0.00,,OVC,0.00,VWS V13.01,2013-05-21 19:59:00,
2013-05-21 16:05:00,71.2,67.8,29.77,SW,227,0.0,10.1,89,0.00,,OVC,0.00,VWS V13.01,2013-05-21 20:05:00,
2013-05-21 16:10:00,71.2,67.8,29.77,ENE,69,0.0,10.1,89,0.00,,OVC,0.00,VWS V13.01,2013-05-21 20:10:00,
2013-05-21 16:15:00,71.2,67.8,29.77,West,273,0.0,10.1,89,0.00,,OVC,0.00,VWS V13.01,2013-05-21 20:15:00,
2013-05-21 16:20:00,71.2,67.8,29.77,SE,145,0.0,10.1,89,0.00,,OVC,0.00,VWS V13.01,2013-05-21 20:20:00,
2013-05-21 16:25:00,71.2,67.8,29.77,East,99,4.0,10.1,89,0.00,,OVC,0.00,VWS V13.01,2013-05-21 20:25:00,
2013-05-21 16:30:00,71.2,67.8,29.77,North,353,4.9,10.1,89,0.00,,OVC,0.00,VWS V13.01,2013-05-21 20:30:00,
2013-05-21 16:35:00,71.2,67.8,29.74,NW,310,0.0,10.1,89,0.00,,OVC,0.00,VWS V13.01,2013-05-21 20:35:00,
2013-05-21 16:45:00,71.2,67.8,29.74,ESE,118,0.0,10.1,89,0.00,,OVC,0.00,VWS V13.01,2013-05-21 20:45:00,
2013-05-21 16:50:00,71.2,67.8,29.77,ESE,122,0.0,10.1,89,0.00,,OVC,0.00,VWS V13.01,2013-05-21 20:50:00,
2013-05-21 16:55:00,71.2,67.8,29.77,East,97,5.8,10.1,89,0.00,,OVC,0.00,VWS V13.01,2013-05-21 20:55:00,
2013-05-21 17:00:00,71.2,67.8,29.77,SSW,194,0.0,10.1,89,0.00,,OVC,0.00,VWS V13.01,2013-05-21 21:00:00,
2013-05-21 17:05:00,71.2,67.8,29.77,NW,315,0.0,10.1,89,0.00,,OVC,0.00,VWS V13.01,2013-05-21 21:05:00,
2013-05-21 17:10:00,71.2,67.8,29.77,West,261,5.8,10.1,89,0.00,,OVC,0.00,VWS V13.01,2013-05-21 21:10:00,
2013-05-21 17:15:00,71.2,67.8,29.77,East,86,2.2,10.1,89,0.00,,OVC,0.00,VWS V13.01,2013-05-21 21:15:00,
2013-05-21 17:20:00,71.2,67.8,29.77,East,79,3.6,10.1,89,0.00,,OVC,0.00,VWS V13.01,2013-05-21 21:20:00,
2013-05-21 17:25:00,71.2,67.8,29.77,NNW,327,2.2,10.1,89,0.00,,OVC,0.00,VWS V13.01,2013-05-21 21:25:00,
2013-05-21 17:30:00,71.2,67.8,29.77,North,11,3.6,10.1,89,0.00,,OVC,0.00,VWS V13.01,2013-05-21 21:30:00,
2013-05-21 17:35:00,71.2,67.8,29.74,ENE,72,3.1,10.1,89,0.00,,OVC,0.00,VWS V13.01,2013-05-21 21:35:00,
2013-05-21 17:40:00,71.2,67.8,29.74,SE,125,0.0,10.1,89,0.00,,OVC,0.00,VWS V13.01,2013-05-21 21:40:00,
2013-05-21 17:45:00,71.2,67.8,29.74,NW,316,2.7,10.1,89,0.00,,OVC,0.00,VWS V13.01,2013-05-21 21:45:00,
2013-05-21 17:50:00,71.2,67.8,29.74,ENE,75,4.9,10.1,89,0.00,,OVC,0.00,VWS V13.01,2013-05-21 21:50:00,
2013-05-21 17:55:00,71.2,67.8,29.74,ESE,102,0.0,10.1,89,0.00,,OVC,0.00,VWS V13.01,2013-05-21 21:55:00,
2013-05-21 18:00:00,71.2,67.8,29.74,NNW,335,0.0,10.1,89,0.00,,OVC,0.00,VWS V13.01,2013-05-21 22:00:00,
2013-05-21 18:05:00,71.2,67.8,29.74,ENE,61,0.0,10.1,89,0.00,,OVC,0.00,VWS V13.01,2013-05-21 22:05:00,
2013-05-21 18:10:00,71.2,67.8,29.74,West,264,2.2,10.1,89,0.00,,OVC,0.00,VWS V13.01,2013-05-21 22:10:00,
2013-05-21 18:15:00,71.2,67.8,29.74,SW,216,0.0,10.1,89,0.00,,OVC,0.00,VWS V13.01,2013-05-21 22:15:00,
2013-05-21 18:20:00,71.2,67.8,29.74,SSW,197,0.0,10.1,89,0.00,,OVC,0.00,VWS V13.01,2013-05-21 22:20:00,
2013-05-21 18:25:00,71.2,67.8,29.74,SW,226,2.7,10.1,89,0.00,,OVC,0.00,VWS V13.01,2013-05-21 22:25:00,
2013-05-21 18:30:00,71.2,67.8,29.74,East,82,3.1,10.1,89,0.00,,OVC,0.00,VWS V13.01,2013-05-21 22:30:00,
2013-05-21 18:35:00,71.2,67.8,29.74,South,179,0.0,10.1,89,0.00,,OVC,0.00,VWS V13.01,2013-05-21 22:35:00,
2013-05-21 18:40:00,71.2,67.8,29.74,SSE,154,3.1,10.1,89,0.00,,OVC,0.00,VWS V13.01,2013-05-21 22:40:00,
2013-05-21 18:45:00,71.2,67.8,29.74,NNE,18,0.0,10.1,89,0.00,,OVC,0.00,VWS V13.01,2013-05-21 22:45:00,
2013-05-21 18:50:00,71.2,67.8,29.74,SE,143,0.0,10.1,89,0.00,,OVC,0.00,VWS V13.01,2013-05-21 22:50:00,
2013-05-21 18:55:00,71.2,67.8,29.74,WSW,255,0.0,10.1,89,0.00,,OVC,0.00,VWS V13.01,2013-05-21 22:55:00,
2013-05-21 19:00:00,71.2,67.8,29.74,South,188,0.0,10.1,89,0.00,,OVC,0.00,VWS V13.01,2013-05-21 23:00:00,
2013-05-21 19:05:00,71.2,67.8,29.74,SSW,204,0.0,10.1,89,0.00,,OVC,0.00,VWS V13.01,2013-05-21 23:05:00,
2013-05-21 19:10:00,71.2,67.8,29.74,West,280,2.7,10.1,89,0.00,,OVC,0.00,VWS V13.01,2013-05-21 23:10:00,
2013-05-21 19:15:00,71.2,67.8,29.74,ESE,112,0.0,10.1,89,0.00,,OVC,0.00,VWS V13.01,2013-05-21 23:15:00,
2013-05-21 19:20:00,71.2,67.8,29.74,NW,319,5.4,10.1,89,0.00,,OVC,0.00,VWS V13.01,2013-05-21 23:20:00,
2013-05-21 19:25:00,71.2,67.8,29.74,West,279,0.0,10.1,89,0.00,,OVC,0.00,VWS V13.01,2013-05-21 23:25:00,
2013-05-21 19:31:00,71.2,67.8,29.74,West,264,0.0,10.1,89,0.00,,OVC,0.00,VWS V13.01,2013-05-21 23:31:00,
2013-05-21 19:36:00,71.2,67.8,29.74,NW,304,0.0,10.1,89,0.00,,OVC,0.00,VWS V13.01,2013-05-21 23:36:00,
2013-05-21 19:41:00,71.2,67.8,29.74,ESE,103,2.7,10.1,89,0.00,,OVC,0.00,VWS V13.01,2013-05-21 23:41:00,
2013-05-21 19:46:00,71.2,67.8,29.74,West,274,0.0,10.1,89,0.00,,OVC,0.00,VWS V13.01,2013-05-21 23:46:00,
2013-05-21 19:51:00,71.2,67.8,29.74,ENE,63,0.0,10.1,89,0.00,,OVC,0.00,VWS V13.01,2013-05-21 23:51:00,
2013-05-21 19:56:00,71.2,67.8,29.74,North,5,0.0,10.1,89,0.00,,OVC,0.00,VWS V13.01,2013-05-21 23:56:00,
2013-05-21 20:01:00,71.2,67.8,29.74,NW,313,2.7,10.1,89,0.00,,OVC,0.00,VWS V13.01,2013-05-22 00:01:00,
2013-05-21 20:06:00,71.2,67.8,29.74,NNW,345,0.0,10.1,89,0.00,,OVC,0.00,VWS V13.01,2013-05-22 00:06:00,
2013-05-21 20:11:00,71.2,67.8,29.74,NNE,27,0.0,10.1,89,0.00,,OVC,0.00,VWS V13.01,2013-05-22 00:11:00,
2013-05-21 20:16:00,71.2,67.8,29.74,NW,326,0.0,10.1,89,0.00,,OVC,0.00,VWS V13.01,2013-05-22 00:16:00,
2013-05-21 20:21:00,71.2,67.8,29.74,ENE,70,0.0,10.1,89,0.00,,OVC,0.00,VWS V13.01,2013-05-22 00:21:00,
2013-05-21 20:26:00,71.2,67.8,29.74,SE,143,0.0,10.1,89,0.00,,OVC,0.00,VWS V13.01,2013-05-22 00:26:00,
2013-05-21 20:31:00,71.2,67.8,29.74,ENE,61,0.0,10.1,89,0.00,,OVC,0.00,VWS V13.01,2013-05-22 00:31:00,
2013-05-21 20:36:00,71.2,67.8,29.74,NW,317,0.0,10.1,89,0.00,,OVC,0.00,VWS V13.01,2013-05-22 00:36:00,
2013-05-21 20:44:00,71.2,67.8,29.74,SE,146,0.0,10.1,89,0.00,,OVC,0.00,VWS V13.01,2013-05-22 00:44:00,
2013-05-21 20:49:00,71.2,67.8,29.74,WSW,249,0.0,10.1,89,0.00,,OVC,0.00,VWS V13.01,2013-05-22 00:49:00,
2013-05-21 20:54:00,71.2,67.8,29.74,NW,319,0.0,10.1,89,0.00,,OVC,0.00,VWS V13.01,2013-05-22 00:54:00,
2013-05-21 20:59:00,71.2,67.8,29.74,NNW,341,0.0,10.1,89,0.00,,OVC,0.00,VWS V13.01,2013-05-22 00:59:00,
2013-05-21 21:04:00,71.2,67.8,29.74,North,357,0.0,10.1,89,0.00,,OVC,0.00,VWS V13.01,2013-05-22 01:04:00,
2013-05-21 21:09:00,71.2,67.8,29.74,SW,216,0.0,10.1,89,0.00,,OVC,0.00,VWS V13.01,2013-05-22 01:09:00,
2013-05-21 21:14:00,71.2,67.8,29.74,North,353,0.0,10.1,89,0.00,,OVC,0.00,VWS V13.01,2013-05-22 01:14:00,
2013-05-21 21:19:00,71.2,67.8,29.74,NW,318,0.0,10.1,89,0.00,,OVC,0.00,VWS V13.01,2013-05-22 01:19:00,
2013-05-21 21:24:00,71.2,67.8,29.74,NNW,337,0.0,10.1,89,0.00,,OVC,0.00,VWS V13.01,2013-05-22 01:24:00,
2013-05-21 21:30:00,71.2,67.8,29.74,NW,314,0.0,10.1,89,0.00,,OVC,0.00,VWS V13.01,2013-05-22 01:30:00,
2013-05-21 21:34:00,71.2,67.8,29.74,NW,321,0.0,10.1,89,0.00,,OVC,0.00,VWS V13.01,2013-05-22 01:34:00,
2013-05-21 21:40:00,71.2,67.8,29.74,East,93,0.0,10.1,89,0.00,,OVC,0.00,VWS V13.01,2013-05-22 01:40:00,
2013-05-21 21:45:00,71.2,67.8,29.74,NE,34,0.0,10.1,89,0.00,,OVC,0.00,VWS V13.01,2013-05-22 01:45:00,
2013-05-21 21:50:00,71.2,67.8,29.74,NNW,346,0.0,10.1,89,0.00,,OVC,0.00,VWS V13.01,2013-05-22 01:50:00,
2013-05-21 21:55:00,71.2,67.8,29.74,SSW,202,0.0,10.1,89,0.00,,OVC,0.00,VWS V13.01,2013-05-22 01:55:00,
2013-05-21 22:00:00,71.2,67.8,29.74,SW,223,0.0,10.1,89,0.00,,OVC,0.00,VWS V13.01,2013-05-22 02:00:00,
2013-05-21 22:05:00,71.2,67.8,29.74,NW,308,0.0,10.1,89,0.00,,OVC,0.00,VWS V13.01,2013-05-22 02:05:00,
2013-05-21 22:10:00,71.2,67.8,29.74,ESE,116,0.0,10.1,89,0.00,,OVC,0.00,VWS V13.01,2013-05-22 02:10:00,
2013-05-21 22:15:00,71.2,67.8,29.74,NNW,341,0.0,10.1,89,0.00,,OVC,0.00,VWS V13.01,2013-05-22 02:15:00,
2013-05-21 22:20:00,71.2,67.8,29.74,South,179,0.0,10.1,89,0.00,,OVC,0.00,VWS V13.01,2013-05-22 02:20:00,
2013-05-21 22:25:00,71.2,67.8,29.74,ENE,65,0.0,10.1,89,0.00,,OVC,0.00,VWS V13.01,2013-05-22 02:25:00,
2013-05-21 22:30:00,71.2,67.8,29.74,NE,47,0.0,10.1,89,0.00,,OVC,0.00,VWS V13.01,2013-05-22 02:30:00,
2013-05-21 22:35:00,71.2,67.8,29.74,SSE,160,0.0,10.1,89,0.00,,OVC,0.00,VWS V13.01,2013-05-22 02:35:00,
2013-05-21 22:40:00,71.2,67.8,29.74,NNE,33,0.0,10.1,89,0.00,,OVC,0.00,VWS V13.01,2013-05-22 02:40:00,
2013-05-21 22:45:00,71.2,67.8,29.74,ENE,68,0.0,10.1,89,0.00,,OVC,0.00,VWS V13.01,2013-05-22 02:45:00,
2013-05-21 22:50:00,71.2,67.8,29.74,NW,309,0.0,10.1,89,0.00,,OVC,0.00,VWS V13.01,2013-05-22 02:50:00,
2013-05-21 22:55:00,71.2,67.8,29.74,West,260,0.0,10.1,89,0.00,,OVC,0.00,VWS V13.01,2013-05-22 02:55:00,
2013-05-21 23:00:00,71.2,67.8,29.74,North,357,0.0,10.1,89,0.00,,OVC,0.00,VWS V13.01,2013-05-22 03:00:00,
2013-05-21 23:05:00,71.2,67.8,29.74,WNW,299,0.0,10.1,89,0.00,,OVC,0.00,VWS V13.01,2013-05-22 03:05:00,
2013-05-21 23:10:00,71.2,67.8,29.74,WNW,301,0.0,10.1,89,0.00,,OVC,0.00,VWS V13.01,2013-05-22 03:10:00,
2013-05-21 23:15:00,71.2,67.8,29.74,NE,36,0.0,10.1,89,0.00,,OVC,0.00,VWS V13.01,2013-05-22 03:15:00,
2013-05-21 23:20:00,71.2,67.8,29.74,WNW,287,0.0,10.1,89,0.00,,OVC,0.00,VWS V13.01,2013-05-22 03:20:00,
2013-05-21 23:25:00,71.2,67.8,29.74,ENE,59,0.0,10.1,89,0.00,,OVC,0.00,VWS V13.01,2013-05-22 03:25:00,
2013-05-21 23:30:00,71.2,67.8,29.74,West,279,0.0,10.1,89,0.00,,OVC,0.00,VWS V13.01,2013-05-22 03:30:00,
2013-05-21 23:35:00,71.2,67.8,29.74,WNW,294,0.0,10.1,89,0.00,,OVC,0.00,VWS V13.01,2013-05-22 03:35:00,
2013-05-21 23:40:00,71.2,67.8,29.74,NW,324,0.0,10.1,89,0.00,,OVC,0.00,VWS V13.01,2013-05-22 03:40:00,
2013-05-21 23:45:00,71.2,67.8,29.74,North,353,0.0,10.1,89,0.00,,OVC,0.00,VWS V13.01,2013-05-22 03:45:00,
2013-05-21 23:50:00,71.2,67.8,29.74,WSW,247,0.0,10.1,89,0.00,,OVC,0.00,VWS V13.01,2013-05-22 03:50:00,
2013-05-21 23:55:00,71.2,67.8,29.74,NW,311,0.0,10.1,89,0.00,,OVC,0.00,VWS V13.01,2013-05-22 03:55:00,